Marshfield, WI

4:38 PM CDT on May 22, 2017 (GMT -0500)
Marshfield Municipal

Weather History for KMFI - November, 2013

Change the Weather History Date:

Thursday, November 7, 2013

  Actual Average Record
Temperature  
Mean Temperature 30 °F -  
Max Temperature 36 °F 45 °F 68 °F (1949)
Min Temperature 25 °F 26 °F -7 °F (1991)
Degree Days  
Heating Degree Days 34    
Moisture  
Dew Point 24 °F    
Average Humidity 80    
Maximum Humidity 89    
Minimum Humidity 59    
Precipitation  
Precipitation 0.00 in - - ()
Sea Level Pressure  
Sea Level Pressure 30.20 in    
Wind  
Wind Speed 5 mph (WNW)    
Max Wind Speed 13 mph    
Max Gust Speed -    
Visibility 8 miles    
Events      
Averages and records for this station are not official NWS values.
T = Trace of Precipitation, MM = Missing Value Source: NWS Daily Summary

Daily Weather History Graph

Daily Weather History Graph

Search for Another Location

Airport or City:

Trip Planner

Search our weather history database for the weather conditions in past years. The results will help you decide how hot, cold, wet, or windy it might be!

Date:

Astronomy

Nov. 07, 2013 Rise Set
Actual Time 6:46 AM CST 4:41 PM CST
Civil Twilight 6:16 AM CST 5:12 PM CST
Nautical Twilight 5:41 AM CST 5:47 PM CST
Astronomical Twilight 5:07 AM CST 6:21 PM CST
Moon 10:57 AM CST (11/7) 8:51 PM CST (11/7)
Length of Visible Light 10h 56m
Length of Day
9h 54m
Waxing Crescent, 23% of the Moon is Illuminated
Nov 7
Waxing Crescent
Nov 9
First Quarter
Nov 17
Full
Nov 25
Last Quarter
Dec 2
New

Hourly Weather History & Observations

Time (CST) Temp. Windchill Dew Point Humidity Pressure Visibility Wind Dir Wind Speed Gust Speed Precip Events Conditions
12:54 AM 28.0 °F 24.2 °F 24.1 °F 85% 30.11 in 10.0 mi West 3.5 mph - N/A   Partly Cloudy
1:54 AM 27.0 °F 21.6 °F 23.0 °F 85% 30.17 in 9.0 mi West 4.6 mph - N/A   Clear
2:54 AM 26.1 °F 20.5 °F 23.0 °F 88% 30.17 in 9.0 mi West 4.6 mph - N/A   Clear
3:54 AM 26.1 °F 19.4 °F 23.0 °F 88% 30.17 in 8.0 mi West 5.8 mph - N/A   Clear
4:54 AM 26.1 °F 20.5 °F 21.9 °F 84% 30.17 in 8.0 mi WNW 4.6 mph - N/A   Clear
5:54 AM 26.1 °F 19.4 °F 23.0 °F 88% 30.17 in 7.0 mi West 5.8 mph - N/A   Scattered Clouds
6:54 AM 25.0 °F 20.7 °F 21.9 °F 88% 30.19 in 5.0 mi West 3.5 mph - N/A   Clear
7:54 AM 27.0 °F 21.6 °F 24.1 °F 89% 30.21 in 5.0 mi WNW 4.6 mph - N/A   Clear
8:54 AM 30.0 °F 23.2 °F 26.1 °F 85% 30.21 in 6.0 mi WNW 6.9 mph - N/A   Clear
9:54 AM 33.1 °F 26.9 °F 25.0 °F 72% 30.21 in 10.0 mi WNW 6.9 mph - N/A   Clear
10:54 AM 36.0 °F 29.0 °F 23.0 °F 59% 30.21 in 10.0 mi WNW 9.2 mph - N/A   Clear
11:54 AM 36.0 °F 29.6 °F 24.1 °F 62% 30.21 in 10.0 mi West 8.1 mph - N/A   Mostly Cloudy
12:54 PM 35.1 °F 27.9 °F 24.1 °F 64% 30.19 in 10.0 mi WNW 9.2 mph - N/A   Overcast
1:54 PM 35.1 °F 27.4 °F 24.1 °F 64% 30.19 in 10.0 mi WNW 10.4 mph - N/A   Overcast
2:54 PM 34.0 °F 25.0 °F 24.1 °F 67% 30.19 in 10.0 mi WNW 12.7 mph - N/A   Overcast
3:54 PM 34.0 °F 27.2 °F 24.1 °F 67% 30.19 in 10.0 mi WNW 8.1 mph - N/A   Overcast
4:54 PM 32.0 °F 26.4 °F 25.0 °F 75% 30.20 in 10.0 mi West 5.8 mph - N/A   Mostly Cloudy
5:54 PM 28.9 °F 23.9 °F 24.1 °F 82% 30.22 in 9.0 mi WNW 4.6 mph - N/A   Partly Cloudy
6:54 PM 28.9 °F 25.2 °F 24.1 °F 82% 30.22 in 9.0 mi WNW 3.5 mph - N/A   Clear
7:54 PM 28.0 °F 24.2 °F 24.1 °F 85% 30.22 in 8.0 mi WNW 3.5 mph - N/A   Clear
8:54 PM 27.0 °F 21.6 °F 24.1 °F 89% 30.23 in 7.0 mi West 4.6 mph - N/A   Clear
9:54 PM 27.0 °F 23.0 °F 24.1 °F 89% 30.23 in 5.0 mi West 3.5 mph - N/A   Clear
10:54 PM 27.0 °F 21.6 °F 24.1 °F 89% 30.23 in 4.0 mi West 4.6 mph - N/A   Clear
11:54 PM 28.0 °F 22.8 °F 25.0 °F 88% 30.23 in 4.0 mi West 4.6 mph - N/A   Mostly Cloudy